Weather reports worldwide

Advertisment
Regensburg, Germany (10776): temperature & dewpoint: 05.12.2019 08:00:00 - 11.12.2019 08:00:00 (CET)Regensburg, Germany (10776): temperature 5cm & temperature -5cm: 05.12.2019 08:00:00 - 11.12.2019 08:00:00 (CET)Regensburg, Germany (10776): temperature -20cm & temperature -100cm: 05.12.2019 08:00:00 - 11.12.2019 08:00:00 (CET)Regensburg, Germany (10776): wind speed & gusts: 05.12.2019 08:00:00 - 11.12.2019 08:00:00 (CET)Regensburg, Germany (10776): wind direction: 05.12.2019 08:00:00 - 11.12.2019 08:00:00 (CET)Regensburg, Germany (10776): reduced air pressure: 05.12.2019 08:00:00 - 11.12.2019 08:00:00 (CET)Regensburg, Germany (10776): visibility: 05.12.2019 08:00:00 - 11.12.2019 08:00:00 (CET)Regensburg, Germany (10776): sunshine duration: 05.12.2019 08:00:00 - 11.12.2019 08:00:00 (CET)Regensburg, Germany (10776): precipitation: 05.12.2019 08:00:00 - 11.12.2019 08:00:00 (CET)
Date & Time tt [°C] td [°C] tt 5cm [°C] tt -5cm [°C] tt -20cm [°C] tt -100cm [°C] ff [km/h] ff [kn] fx [km/h] fx [kn] dd ppp [hPa] vv [km] sd [min] rr [mm]
11.12.2019 08:00:00 -2,2 -2,8 -3,0 0,5 2,6 7,0 13 7 23 13 SE 1019,8 7 0 0,0
11.12.2019 07:00:00 -2,5 -3,1 -3,9 0,5 2,7 7,0 10 5 17 9 SE 1020,5 9 0 0,0
11.12.2019 06:00:00 -2,4 -2,8 -3,7 0,6 2,8 7,0 9 5 18 10 SSE 1020,9 8 0 0,0
11.12.2019 05:00:00 -2,1 -2,7 -3,3 0,7 2,8 7,0 12 6 19 10 SE 1021,7 11 0 0,0
11.12.2019 04:00:00 -1,5 -1,7 -1,8 0,7 2,9 7,0 9 5 22 12 SE 1022,7 4,7 0 0,0
11.12.2019 03:00:00 -1,4 -1,5 -1,5 0,8 3,0 7,0 12 6 20 11 SE 1023,7 0,6 0 0,0
11.12.2019 02:00:00 -1,0 -1,1 -1,3 0,8 3,0 7,0 6 4 13 7 SE 1024,8 3,3 0 0,0
11.12.2019 01:00:00 -1,4 -1,7 -3,3 0,8 3,1 7,0 7 4 14 8 SSE 1025,6 8 0 0,0
11.12.2019 00:00:00 -1,5 -1,8 -4,5 0,9 3,2 7,0 4 2 12 7 SSE 1026,4 11 0 0,0
10.12.2019 23:00:00 -1,4 -1,7 -4,3 1,0 3,3 7,0 6 3 10 6 SSE 1026,8 12 0 0,0
10.12.2019 22:00:00 -1,2 -1,5 -3,7 1,1 3,5 7,0 7 4 9 5 SE 1027,0 11 0 0,0
10.12.2019 21:00:00 -0,8 -1,4 -2,9 1,2 3,6 7,0 0 0 9 5 N 1027,7 15 0 0,0
10.12.2019 20:00:00 0,2 -0,6 -3,1 1,3 3,7 7,0 5 3 11 6 SE 1027,8 20 0 0,0
10.12.2019 19:00:00 0,8 -0,7 -2,0 1,6 3,8 7,0 3 1 8 4 S 1027,9 23 0 0,0
10.12.2019 18:00:00 2,0 -0,2 -1,3 2,6 3,8 7,0 4 2 17 9 SSW 1028,0 19 0 0,0
10.12.2019 17:00:00 2,7 -0,2 1,0 3,3 3,8 7,0 14 7 20 11 SW 1028,1 32 0 0,0
10.12.2019 16:00:00 3,3 0,3 2,2 4,0 3,7 7,0 12 6 27 15 WSW 1028,3 33 1 0,0
10.12.2019 15:00:00 3,7 0,3 3,0 4,5 3,5 7,0 17 9 - - W 1028,4 31 - -
10.12.2019 14:00:00 - - - - - - - - - - - - - - -
10.12.2019 13:00:00 4,1 0,7 3,7 4,1 3,3 7,0 13 7 21 11 W 1028,2 31 0 0,0
10.12.2019 12:00:00 3,7 0,8 3,3 3,4 3,3 7,0 13 7 27 14 W 1027,8 29 0 0,0
10.12.2019 11:00:00 3,4 - 3,0 2,5 3,3 - 17 9 34 18 W 1027,8 29 0 0,0
10.12.2019 10:00:00 2,7 0,6 1,9 1,8 3,4 7,0 18 10 27 15 W 1027,5 27 0 0,0
10.12.2019 09:00:00 2,0 0,3 1,0 1,2 3,5 7,0 18 10 27 14 W 1026,4 29 0 0,0
10.12.2019 08:00:00 1,5 -0,2 0,0 1,2 3,6 7,0 9 5 16 9 W 1025,6 36 0 0,0
10.12.2019 07:00:00 1,3 -0,2 -0,8 1,3 3,7 7,0 9 5 16 9 NW 1024,3 36 0 0,0
10.12.2019 06:00:00 2,2 0,5 0,0 2,1 3,8 7,0 10 5 30 16 NW 1022,7 39 0 0,0
10.12.2019 05:00:00 2,7 1,1 0,7 2,6 3,8 7,0 12 6 37 20 WNW 1021,2 48 0 0,0
10.12.2019 04:00:00 3,5 2,2 2,3 3,1 3,8 7,0 12 7 39 21 NNW 1019,6 50 0 0,1
10.12.2019 03:00:00 4,4 2,6 3,1 3,1 3,9 7,0 19 11 36 19 NW 1017,6 75 0 0,2
10.12.2019 02:00:00 4,3 3,6 3,2 2,9 3,9 7,0 10 5 21 11 WNW 1016,0 28 0 0,2
10.12.2019 01:00:00 4,1 3,2 2,6 3,1 3,9 7,0 11 6 20 11 W 1014,7 49 0 0,0
10.12.2019 00:00:00 4,5 3,6 3,3 3,1 4,0 7,0 8 5 16 9 WNW 1013,6 52 0 0,0
09.12.2019 23:00:00 4,5 3,6 3,2 3,2 4,0 7,0 9 5 18 10 WNW 1012,2 72 0 0,1
09.12.2019 22:00:00 4,6 4,0 3,5 3,1 4,1 7,0 6 3 19 11 WNW 1011,0 18 0 0,1
09.12.2019 21:00:00 4,5 3,5 3,1 3,0 4,1 7,0 6 3 11 6 W 1009,8 29 0 0,0
09.12.2019 20:00:00 4,5 3,4 2,0 2,9 4,2 7,0 7 4 28 15 WSW 1008,5 75 0 0,3
09.12.2019 19:00:00 4,9 2,7 2,4 2,7 4,3 7,0 10 5 25 13 W 1007,7 57 0 0,0
09.12.2019 18:00:00 5,4 2,4 2,8 3,3 4,3 7,0 14 8 24 13 WSW 1006,5 75 0 0,0
09.12.2019 17:00:00 6,4 2,1 4,0 3,9 4,3 7,0 12 6 40 22 SW 1005,8 75 0 0,0
09.12.2019 16:00:00 7,3 1,7 4,6 4,8 4,2 7,0 13 7 36 19 SW 1004,9 69 20 0,0
09.12.2019 15:00:00 9,1 2,3 7,9 5,4 4,1 7,1 16 9 30 16 SSW 1004,3 75 15 0,0
09.12.2019 14:00:00 8,4 2,7 7,8 5,3 4,0 7,1 11 6 31 17 SSW 1004,9 70 0 0,0
09.12.2019 13:00:00 8,0 2,2 7,3 5,0 4,0 7,1 14 8 31 17 SSW 1005,1 75 1 0,0
09.12.2019 12:00:00 7,4 2,2 7,2 4,0 4,0 7,1 10 6 23 12 S 1005,4 56 36 0,0
09.12.2019 11:00:00 5,6 2,1 4,6 3,2 4,1 7,1 12 6 23 12 SE 1006,3 56 23 0,0
09.12.2019 10:00:00 4,8 2,2 3,4 2,9 4,1 7,1 16 9 24 13 ESE 1006,6 58 0 0,0
09.12.2019 09:00:00 4,8 2,5 2,9 3,2 4,2 7,1 15 8 23 12 SE 1006,6 58 0 0,0
09.12.2019 08:00:00 5,5 2,8 4,0 3,2 4,3 7,1 10 5 22 12 SSE 1006,6 60 0 0,0
09.12.2019 07:00:00 5,6 2,2 2,7 3,5 4,3 7,1 11 6 19 10 SSW 1006,4 75 0 0,0
09.12.2019 06:00:00 5,7 2,1 2,4 4,1 4,3 7,1 9 5 14 8 WSW 1006,3 60 0 0,0
09.12.2019 05:00:00 6,5 3,2 4,7 4,5 4,3 7,1 10 6 24 13 W 1006,7 56 0 0,0
09.12.2019 04:00:00 6,6 3,1 4,7 4,6 4,3 7,1 14 8 26 14 WSW 1007,2 66 0 0,0
09.12.2019 03:00:00 6,8 3,2 4,9 4,8 4,3 7,1 14 7 44 24 WSW 1007,0 66 0 0,0
09.12.2019 02:00:00 7,4 4,2 5,7 4,9 4,2 7,1 29 16 54 29 W 1006,8 75 0 0,0
09.12.2019 01:00:00 7,1 5,9 5,9 4,7 4,2 7,1 11 6 19 11 SSE 1005,8 70 0 0,0
09.12.2019 00:00:00 6,2 5,3 5,1 4,7 4,2 7,1 12 6 20 11 SE 1006,1 48 0 0,0
08.12.2019 23:00:00 6,0 5,2 5,1 4,8 4,1 7,1 13 7 21 12 SSE 1006,6 13 0 1,1
08.12.2019 22:00:00 6,5 4,4 5,2 4,8 4,1 7,1 13 7 22 12 SSE 1006,7 21 0 0,2
08.12.2019 21:00:00 7,4 4,2 6,4 4,8 4,1 7,1 14 7 23 12 SE 1007,0 75 0 0,0
08.12.2019 20:00:00 7,2 4,4 6,0 4,8 4,0 7,2 14 8 23 12 SE 1007,5 59 0 0,0
08.12.2019 19:00:00 7,2 4,0 6,2 4,8 4,0 7,2 13 7 22 12 SSE 1008,2 75 0 0,0
08.12.2019 18:00:00 7,9 4,0 6,7 4,7 4,0 7,2 13 7 19 11 SSE 1008,5 75 0 0,0
08.12.2019 17:00:00 7,9 3,9 5,9 5,1 3,8 7,2 9 5 28 15 SSE 1009,0 75 0 0,0
08.12.2019 16:00:00 8,5 4,0 6,6 6,0 3,6 7,2 12 6 23 12 S 1009,4 75 0 0,0
08.12.2019 15:00:00 9,1 4,5 8,3 6,5 3,4 7,2 9 5 29 16 S 1010,3 75 0 0,0
08.12.2019 14:00:00 8,7 3,9 8,4 6,7 3,1 7,2 11 6 28 15 SW 1011,3 75 0 0,0
08.12.2019 13:00:00 9,0 3,6 9,3 6,5 2,8 7,2 13 7 29 16 SW 1012,4 75 46 0,0
08.12.2019 12:00:00 8,1 3,7 8,4 4,8 2,7 7,2 13 7 24 13 SSW 1013,6 75 44 0,0
08.12.2019 11:00:00 6,3 3,1 5,9 4,2 2,5 7,2 10 6 21 12 SSE 1014,7 55 35 0,0
08.12.2019 10:00:00 5,2 3,0 4,9 2,9 2,5 7,2 12 7 20 11 SE 1015,7 72 9 0,0
08.12.2019 09:00:00 5,0 2,9 4,3 2,4 2,4 7,2 14 8 19 10 SE 1015,8 61 0 0,0
08.12.2019 08:00:00 4,2 3,0 3,4 2,0 2,4 7,3 10 6 18 10 SSE 1016,1 60 0 0,0
08.12.2019 07:00:00 3,4 2,7 1,7 2,0 2,4 7,3 6 4 18 10 SSE 1016,6 37 0 0,0
08.12.2019 06:00:00 3,8 2,9 2,4 2,4 2,3 7,3 15 8 22 12 SE 1016,6 37 0 0,0
08.12.2019 05:00:00 4,3 3,0 3,6 2,4 2,2 7,3 13 7 18 10 SE 1017,3 44 0 0,0
08.12.2019 04:00:00 5,0 3,2 3,8 2,2 2,2 7,3 8 4 16 9 S 1018,0 54 0 0,0
08.12.2019 03:00:00 4,8 3,2 3,5 2,0 2,1 7,3 10 6 18 10 S 1018,7 47 0 0,0
08.12.2019 02:00:00 4,9 3,7 3,8 1,8 2,1 7,3 13 7 20 11 SW 1019,1 49 0 0,0
08.12.2019 01:00:00 5,4 3,8 3,8 1,9 2,0 7,3 9 5 16 9 S 1019,6 68 0 0,0
08.12.2019 00:00:00 5,9 4,2 3,8 2,0 1,9 7,3 5 3 21 12 SSW 1019,9 65 0 0,0
07.12.2019 23:00:00 5,8 4,0 4,4 1,7 1,8 7,3 13 7 24 13 SW 1019,7 75 0 0,0
07.12.2019 22:00:00 5,7 3,7 4,1 1,5 1,7 7,3 10 5 18 10 SSW 1019,8 69 0 0,0
07.12.2019 21:00:00 5,9 4,1 3,6 1,4 1,6 7,4 3 2 14 8 SW 1019,8 65 0 0,0
07.12.2019 20:00:00 5,7 3,9 4,0 1,2 1,5 7,4 10 6 19 11 WSW 1019,6 75 0 0,0
07.12.2019 19:00:00 6,4 4,2 5,2 0,9 1,4 7,4 11 6 19 10 SW 1019,1 68 0 0,0
07.12.2019 18:00:00 6,3 4,7 4,6 0,2 1,4 7,4 3 2 8 4 S 1018,6 59 0 0,0
07.12.2019 17:00:00 6,5 4,6 4,6 0,0 1,4 7,4 4 2 20 11 W 1018,5 71 0 0,0
07.12.2019 16:00:00 7,1 4,8 5,6 0,0 1,4 7,4 13 7 19 10 SW 1017,6 75 4 0,0
07.12.2019 15:00:00 7,4 4,9 5,6 0,0 1,4 7,4 10 6 26 14 WSW 1016,7 71 3 0,0
07.12.2019 14:00:00 8,0 5,6 7,0 0,0 1,4 7,4 13 7 24 13 WSW 1016,8 68 2 0,0
07.12.2019 13:00:00 7,3 5,3 5,7 0,0 1,4 7,4 11 6 25 13 WSW 1016,6 52 0 0,0
07.12.2019 12:00:00 6,9 5,1 5,0 -0,1 1,4 7,4 13 7 30 16 WSW 1016,8 63 12 0,0
07.12.2019 11:00:00 6,2 4,8 4,9 -0,1 1,4 7,5 14 8 26 14 WSW 1016,8 45 5 0,0
07.12.2019 10:00:00 4,6 3,9 3,0 -0,1 1,4 7,5 10 5 19 11 SSW 1016,4 34 0 0,2
07.12.2019 09:00:00 3,2 2,8 0,3 -0,1 1,4 7,5 12 7 16 9 SSW 1016,6 30 0 0,0
07.12.2019 08:00:00 0,3 0,2 -0,3 -0,1 1,4 7,5 10 5 18 10 SSE 1016,8 5 0 0,0
07.12.2019 07:00:00 0,3 0,1 -0,3 -0,1 1,4 7,5 10 6 18 10 SE 1016,1 7 0 0,0
07.12.2019 06:00:00 -0,1 -0,4 -0,5 -0,1 1,4 7,5 8 4 17 9 SSE 1015,6 5 0 0,0
07.12.2019 05:00:00 -0,8 -1,0 -1,0 -0,1 1,4 7,5 9 5 20 11 SSE 1015,5 4,3 0 0,0
07.12.2019 04:00:00 -1,0 -1,3 -1,1 -0,1 1,4 7,5 8 4 28 15 SSE 1015,6 7 0 0,0
07.12.2019 03:00:00 -1,4 -1,6 -1,2 -0,1 1,4 7,5 14 8 34 18 SSE 1015,6 5 0 0,5
07.12.2019 02:00:00 -1,7 -2,1 -1,0 -0,2 1,4 7,5 19 10 30 16 SSE 1015,9 3,2 0 1,6
07.12.2019 01:00:00 -2,0 -2,3 -1,5 -0,2 1,4 7,5 16 8 27 15 SSE 1016,9 0,8 0 0,2
07.12.2019 00:00:00 -2,3 -2,5 -2,4 -0,2 1,4 7,6 13 7 28 15 SSE 1017,8 0,5 0 0,0
06.12.2019 23:00:00 -2,3 -2,5 -2,4 -0,2 1,4 7,6 16 9 31 17 SSE 1018,0 0,5 0 0,0
06.12.2019 22:00:00 -2,0 -2,2 -2,1 -0,2 1,4 7,6 12 6 29 16 SSE 1018,4 0,8 0 0,0
06.12.2019 21:00:00 -2,0 -2,2 -2,1 -0,2 1,4 7,6 13 7 27 15 SSE 1018,7 0,7 0 0,0
06.12.2019 20:00:00 -1,9 -2,2 -2,0 -0,1 1,4 7,6 16 9 33 18 SE 1019,1 1,2 0 0,0
06.12.2019 19:00:00 -1,5 -2,0 -1,6 -0,1 1,4 7,6 19 10 31 17 SSE 1019,1 4,0 0 0,0
06.12.2019 18:00:00 -1,3 -2,2 -1,5 -0,1 1,4 7,6 14 7 26 14 SSE 1019,4 7 0 0,0
06.12.2019 17:00:00 -1,4 -2,8 -1,8 -0,1 1,4 7,6 14 8 25 13 SSE 1019,7 9 0 0,0
06.12.2019 16:00:00 -1,3 -2,8 -1,5 -0,1 1,4 7,6 15 8 25 13 SSE 1020,2 11 0 0,0
06.12.2019 15:00:00 -1,1 -2,8 -1,1 -0,1 1,4 7,6 13 7 24 13 SSE 1020,5 11 0 0,0
06.12.2019 14:00:00 -1,1 -2,7 -1,3 -0,2 1,4 7,6 11 6 22 12 SE 1021,1 11 0 0,0
06.12.2019 13:00:00 -1,5 -3,0 -1,8 -0,2 1,4 7,7 11 6 19 10 SE 1022,0 10 0 0,0
06.12.2019 12:00:00 -1,9 -3,0 -2,0 -0,3 1,4 7,7 11 6 22 12 SSE 1022,8 9 0 0,0
06.12.2019 11:00:00 -2,4 -3,3 -2,3 -0,3 1,5 7,7 11 6 22 12 SSE 1023,7 8 0 0,0
06.12.2019 10:00:00 -2,9 -3,5 -2,8 -0,4 1,5 7,7 13 7 22 12 SE 1024,2 5 0 0,0
06.12.2019 09:00:00 -2,9 -3,5 -3,0 -0,4 1,5 7,7 14 8 24 13 SE 1024,2 4,3 0 0,0
06.12.2019 08:00:00 -2,8 -3,2 -2,8 -0,4 1,5 7,7 11 6 22 12 SSE 1023,9 3,1 0 0,0
06.12.2019 07:00:00 -2,8 -3,3 -3,0 -0,4 1,5 7,7 9 5 19 10 S 1024,1 1,4 0 0,0
06.12.2019 06:00:00 -2,7 -2,9 -2,8 -0,4 1,5 7,7 6 3 16 9 S 1024,0 2,4 0 0,0
06.12.2019 05:00:00 -3,0 -3,4 -3,0 -0,4 1,5 7,7 6 3 16 9 S 1024,3 1,6 0 0,0
06.12.2019 04:00:00 -3,4 -3,9 -3,3 -0,4 1,5 7,7 7 4 16 9 SSE 1024,6 3,0 0 0,0
06.12.2019 03:00:00 -3,4 -3,8 -3,3 -0,4 1,5 7,7 6 3 18 10 S 1024,7 3,9 0 0,0
06.12.2019 02:00:00 -3,5 -4,0 -3,3 -0,4 1,6 7,8 9 5 17 9 S 1024,9 2,8 0 0,0
06.12.2019 01:00:00 -3,2 -3,8 -3,1 -0,3 1,6 7,8 8 5 14 8 SSW 1025,3 2,1 0 0,0
06.12.2019 00:00:00 -3,1 -3,3 -3,0 -0,3 1,6 7,8 8 5 17 9 S 1025,5 0,8 0 0,0
05.12.2019 23:00:00 -3,1 -3,6 -3,0 -0,3 1,6 7,8 10 5 18 10 S 1025,6 0,5 0 0,0
05.12.2019 22:00:00 -2,9 -3,3 -3,0 -0,3 1,6 7,8 12 6 21 12 SSE 1025,9 1,0 0 0,0
05.12.2019 21:00:00 -2,6 -3,2 -2,6 -0,2 1,6 7,8 6 3 14 8 S 1026,2 1,6 0 0,0
05.12.2019 20:00:00 -2,3 -2,9 -2,5 -0,2 1,6 7,8 8 4 13 7 SSE 1026,2 3,5 0 0,0
05.12.2019 19:00:00 -2,1 -2,9 -2,3 -0,2 1,6 7,8 9 5 16 9 S 1025,7 3,0 0 0,0
05.12.2019 18:00:00 -1,7 -2,5 -2,0 -0,2 1,6 7,8 5 3 13 7 S 1025,5 3,5 0 0,0
05.12.2019 17:00:00 -1,6 -2,6 -1,8 -0,2 1,6 7,8 5 3 9 5 SSE 1025,4 4,0 0 0,0
05.12.2019 16:00:00 -1,5 -2,4 -1,8 -0,2 1,6 7,8 3 1 10 5 S 1025,4 3,8 0 0,0
05.12.2019 15:00:00 -1,5 -2,5 -1,7 -0,2 1,7 7,9 5 3 11 6 SSW 1025,2 3,7 0 0,0
05.12.2019 14:00:00 -1,3 -2,0 -1,4 -0,2 1,7 7,9 6 3 13 7 S 1025,1 4,0 0 0,0
05.12.2019 13:00:00 -1,5 -2,2 -1,5 -0,3 1,7 7,9 5 3 13 7 S 1025,4 3,2 0 0,0
05.12.2019 12:00:00 -1,7 -2,4 -1,7 -0,3 1,7 7,9 6 4 14 7 S 1025,7 3,2 0 0,0
05.12.2019 11:00:00 -2,0 -2,6 -2,1 -0,4 1,7 7,9 9 5 20 11 SSE 1026,2 3,1 0 0,0
05.12.2019 10:00:00 -2,2 -2,8 -2,2 -0,6 1,8 7,9 10 5 19 10 SSE 1025,9 3,2 0 0,0
05.12.2019 09:00:00 -2,9 -3,5 -3,0 -0,7 1,8 7,9 13 7 22 12 SE 1025,7 1,7 0 0,0
05.12.2019 08:00:00 -3,8 -4,4 -4,1 -1,0 1,9 7,9 4 2 11 6 SE 1025,6 8 0 0,0

tt = temperature
td = dewpoint
tt 5cm = temperature 5cm
tt -5cm = temperature -5cm
tt -20cm = temperature -20cm
tt -100cm = temperature -100cm
ff = wind speed
fx = gusts
dd = wind direction
ppp = reduced air pressure
vv = visibility
sd = sunshine duration
rr = precipitation

Next stations